Temp
51 53 54 55 55 55 55 55 54 56 56 55 53 53 55 57 58 59 59 59 60 59 59 58 58 58 57 58 57 56 54 56 56 54 56 58 59 61 64 67 68 68 70
48 50 51 52 52 53 53 54 54 55 55 54 54 53 54 55 56 56 58 59 58 58 58 58 58 58 57 57 57 55 53 53 55 53 52 49 54 61 64 65 67 67 66
45 47 49 50 51 51 52 53 53 54 55 54 54 53 53 52 51 53 54 56 58 57 57 57 58 58 57 55 56 56 53 51 55 55 51 46 47 51 59 60 63 65 64
47 47 48 48 50 51 52 53 53 53 54 55 52 50 48 47 50 52 53 54 55 56 56 56 57 57 57 55 55 56 52 52 50 53 55 54 52 46 47 58 56 56 58
46 46 47 49 51 51 51 52 52 52 53 53 52 50 49 50 51 51 50 51 53 54 54 56 57 56 56 55 53 53 53 53 51 52 52 51 51 51 47 46 51 56 57
46 47 49 50 50 51 51 51 51 51 52 52 51 50 48 48 48 48 49 50 51 52 53 53 54 55 55 54 53 53 52 52 52 53 52 50 48 49 49 47 51 50 54
45 45 46 46 47 48 49 50 50 49 51 51 51 50 49 48 47 48 48 49 50 50 51 51 52 53 53 53 53 53 52 52 51 51 51 52 51 52 51 49 48 49 52
45 45 45 46 47 48 49 49 49 49 51 51 50 50 50 49 49 49 49 49 50 51 52 52 52 52 52 52 53 52 52 53 52 51 51 51 52 52 51 49 48 44 51
43 44 46 47 48 48 49 50 49 50 50 50 50 50 51 50 50 50 51 50 50 51 51 51 50 51 51 51 52 51 51 52 52 52 51 51 52 52 52 52 52 47 43
43 44 45 47 48 49 49 50 49 48 48 49 49 49 49 50 50 50 50 50 51 51 50 50 50 50 50 51 50 50 51 50 51 52 50 50 51 51 51 51 53 53 49
42 44 45 47 48 49 48 47 46 46 45 45 45 45 45 46 47 47 48 49 49 50 49 49 49 48 48 49 49 49 49 48 49 50 50 50 51 51 52 52 50 50 52
42 44 45 46 46 46 46 46 45 44 43 42 41 40 41 41 42 42 44 46 45 46 46 47 46 45 45 47 48 47 49 48 47 49 49 49 51 50 50 51 50 52 52
42 43 44 44 44 44 44 44 42 40 42 41 41 40 41 41 41 41 42 44 45 45 44 45 44 44 44 45 47 48 48 49 49 49 49 49 49 48 49 50 50 52 52
41 42 42 43 43 43 42 40 39 40 39 39 39 39 40 41 42 43 43 44 45 44 45 45 46 46 45 45 45 46 46 47 49 49 49 49 48 49 49 50 52 50 45
39 40 40 41 41 40 39 39 38 38 39 38 38 39 40 42 42 42 43 43 43 44 44 44 45 46 46 46 45 46 47 47 47 47 48 49 49 51 51 50 50 46 43
38 40 40 39 39 37 37 38 38 38 39 38 39 41 44 45 44 43 43 43 43 42 42 43 44 44 46 48 49 47 45 45 45 45 46 48 50 52 54 55 52 48 42
38 39 39 39 37 38 38 37 37 38 39 39 44 43 44 44 43 42 42 44 46 44 42 43 43 43 44 47 49 49 47 45 44 44 46 47 50 52 54 54 53 51 49
38 39 40 39 40 39 38 38 38 39 39 42 42 44 44 42 42 42 43 44 46 45 43 43 43 43 45 48 49 50 48 46 46 47 47 48 49 51 47 42 39 39 40
40 40 41 41 41 38 38 38 38 39 41 40 41 42 42 41 42 42 43 44 44 44 44 44 46 47 46 48 50 48 46 45 46 47 48 48 47 48 46 40 38 38 39
41 40 41 42 40 37 38 37 37 38 40 41 41 42 42 41 41 42 42 44 44 43 44 43 44 46 46 50 49 47 45 43 43 44 46 48 46 47 46 41 38 35 36
40 42 41 40 38 38 38 36 37 38 42 44 43 43 43 43 43 42 42 42 42 41 41 42 43 44 45 45 47 46 41 40 39 39 40 42 44 43 42 39 35 34 36
39 41 39 39 40 39 37 36 37 41 45 44 43 43 43 44 43 42 42 42 41 39 39 38 36 40 45 47 47 47 45 44 40 39 40 42 43 43 43 41 42 41 39
39 41 39 38 39 38 37 35 39 42 45 44 42 43 43 44 44 42 41 40 40 39 37 36 34 34 37 40 47 46 46 45 42 43 44 45 45 44 43 43 42 41 38
38 40 38 37 35 37 37 38 41 43 44 42 42 43 42 43 43 43 43 41 40 39 39 38 37 37 37 38 38 38 39 41 40 41 41 41 40 40 39 38 38 38 37
39 39 37 36 36 36 37 40 41 44 43 42 42 42 42 42 41 43 42 42 44 43 40 40 41 40 39 41 42 40 39 39 40 39 39 38 37 37 36 36 37 37 38
38 38 37 37 36 36 37 40 41 44 43 41 40 41 41 41 41 40 40 46 45 45 45 45 44 44 44 44 43 43 42 41 41 38 36 35 36 35 35 35 36 37 37
MSLP
1029.26 1028.63 1027.92 1027.13 1026.36 1025.54 1024.67 1023.98 1023.22 1022.34 1021.77 1021.20 1020.32 1019.43 1018.66 1017.82 1017.06 1016.45 1016.19 1015.94 1015.39 1015.19 1015.20 1015.13 1015.08 1014.87 1014.66 1014.30 1014.39 1014.28 1014.02 1013.56 1013.53 1013.10 1012.35 1011.84 1011.38 1010.37 1009.56 1008.95 1008.56 1008.24 1007.96
1028.91 1028.30 1027.57 1026.92 1026.21 1025.32 1024.46 1023.68 1022.88 1022.05 1021.37 1020.77 1020.06 1019.71 1018.82 1017.82 1017.08 1016.22 1015.71 1015.28 1014.84 1014.61 1014.69 1014.49 1014.31 1014.20 1014.08 1013.82 1013.76 1013.70 1013.50 1013.37 1013.26 1012.68 1012.40 1011.13 1010.30 1009.50 1008.60 1008.07 1007.52 1007.21 1007.34
1028.87 1027.75 1026.82 1026.21 1025.58 1024.80 1023.98 1023.25 1022.41 1021.55 1020.83 1020.26 1019.50 1018.72 1018.06 1017.33 1016.64 1015.91 1015.41 1014.68 1014.21 1013.80 1013.51 1013.33 1013.02 1012.68 1012.78 1012.72 1012.60 1012.64 1012.64 1012.36 1012.36 1012.41 1012.28 1011.51 1010.26 1009.80 1008.67 1007.75 1007.34 1006.89 1006.53
1028.79 1028.19 1027.27 1026.13 1025.39 1024.37 1023.53 1022.69 1021.80 1021.01 1020.18 1019.47 1018.95 1018.27 1017.64 1016.72 1015.82 1015.34 1014.75 1014.28 1013.79 1013.13 1012.74 1012.46 1012.33 1012.18 1012.08 1011.97 1011.84 1011.81 1011.95 1011.97 1011.52 1011.73 1011.69 1011.61 1011.33 1010.53 1008.85 1007.64 1007.58 1007.36 1006.83
1029.00 1028.05 1027.03 1025.99 1024.84 1023.87 1022.91 1022.08 1021.17 1020.30 1019.41 1018.72 1018.23 1017.51 1016.63 1015.86 1015.06 1014.42 1013.89 1013.19 1012.62 1012.27 1011.96 1011.69 1011.47 1011.34 1011.28 1011.22 1011.36 1011.30 1011.34 1011.28 1011.10 1010.87 1010.91 1011.12 1010.91 1010.90 1010.22 1008.74 1007.34 1006.94 1006.64
1028.22 1027.31 1026.27 1025.34 1024.23 1023.21 1022.19 1021.15 1020.13 1019.10 1018.53 1017.88 1017.14 1016.56 1015.85 1014.97 1014.26 1013.46 1012.91 1012.34 1011.80 1011.35 1011.15 1010.89 1010.57 1010.36 1010.31 1010.36 1010.39 1010.31 1010.38 1010.39 1010.27 1010.15 1010.28 1010.40 1010.40 1010.10 1009.64 1008.96 1007.68 1007.11 1006.47
1028.45 1027.33 1026.21 1024.63 1023.19 1022.15 1021.25 1020.25 1019.23 1018.08 1017.40 1016.54 1015.78 1015.22 1014.54 1013.80 1013.08 1012.39 1011.74 1011.14 1010.59 1010.25 1009.99 1010.01 1009.73 1009.56 1009.51 1009.35 1009.38 1009.40 1009.44 1009.40 1009.35 1009.21 1009.47 1009.75 1009.76 1009.91 1009.53 1009.10 1007.89 1007.64 1006.82
1027.95 1026.89 1025.80 1024.46 1022.90 1021.49 1020.15 1019.14 1018.11 1016.89 1016.07 1015.30 1014.34 1013.75 1013.14 1012.36 1011.60 1011.07 1010.50 1009.97 1009.52 1009.05 1008.85 1008.79 1008.74 1008.58 1008.58 1008.54 1008.51 1008.52 1008.52 1008.51 1008.55 1008.48 1008.81 1008.99 1008.98 1009.08 1008.94 1008.43 1008.18 1007.39 1006.46
1027.19 1026.06 1024.80 1023.59 1022.14 1020.77 1019.51 1018.51 1017.25 1016.08 1015.09 1014.12 1013.19 1012.40 1011.61 1010.87 1010.08 1009.49 1009.02 1008.49 1008.25 1007.91 1007.72 1007.62 1007.62 1007.56 1007.54 1007.56 1007.59 1007.57 1007.52 1007.61 1007.69 1007.76 1007.99 1008.22 1008.15 1008.17 1008.04 1007.76 1007.65 1007.48 1006.86
1026.99 1025.61 1024.15 1022.75 1021.39 1020.20 1019.09 1017.87 1016.72 1015.58 1014.39 1013.34 1012.49 1011.44 1010.43 1009.66 1008.96 1008.33 1007.58 1007.16 1006.80 1006.60 1006.50 1006.47 1006.42 1006.47 1006.57 1006.61 1006.70 1006.74 1006.76 1006.87 1006.84 1006.90 1007.06 1007.22 1007.28 1007.27 1007.23 1006.94 1006.83 1006.84 1006.91
1026.83 1025.35 1023.73 1022.20 1020.94 1019.71 1018.59 1017.36 1016.09 1014.79 1013.63 1012.70 1011.74 1010.60 1009.57 1008.71 1007.89 1007.16 1006.52 1006.09 1005.74 1005.44 1005.45 1005.31 1005.17 1005.35 1005.53 1005.60 1005.72 1005.79 1005.89 1005.94 1006.01 1006.11 1006.17 1006.28 1006.51 1006.40 1006.38 1006.30 1006.32 1006.18 1006.43
1026.70 1025.11 1023.51 1022.05 1020.49 1019.13 1017.90 1016.61 1015.44 1014.23 1013.08 1011.99 1010.77 1009.67 1008.70 1007.77 1006.94 1006.17 1005.57 1005.13 1004.74 1004.43 1004.34 1004.19 1004.17 1004.44 1004.59 1004.58 1004.70 1004.79 1004.86 1005.03 1005.16 1005.32 1005.45 1005.61 1005.82 1005.79 1005.84 1005.86 1005.85 1005.71 1005.89
1026.45 1024.71 1023.15 1021.70 1020.30 1018.83 1017.46 1016.10 1014.87 1013.65 1012.27 1010.92 1009.72 1008.55 1007.47 1006.50 1005.64 1004.91 1004.28 1003.77 1003.27 1002.99 1002.94 1002.82 1002.80 1003.06 1003.33 1003.59 1003.79 1003.85 1003.95 1004.09 1004.22 1004.44 1004.55 1004.82 1005.03 1004.97 1005.06 1005.09 1005.16 1005.33 1005.37
1026.48 1024.74 1022.98 1021.64 1020.49 1018.92 1017.52 1016.00 1014.40 1013.07 1011.63 1010.19 1008.82 1007.58 1006.40 1005.47 1004.52 1003.64 1002.84 1002.29 1001.82 1001.60 1001.47 1001.52 1001.57 1001.82 1002.16 1002.57 1002.82 1003.03 1003.16 1003.26 1003.39 1003.53 1003.75 1004.01 1004.17 1004.19 1004.13 1004.14 1004.17 1004.46 1005.05
1026.33 1024.72 1023.02 1021.88 1020.51 1018.98 1017.33 1015.71 1014.20 1012.64 1011.17 1009.58 1008.12 1006.75 1005.45 1004.33 1003.36 1002.39 1001.61 1001.04 1000.56 1000.30 1000.38 1000.54 1000.69 1000.80 1001.01 1001.39 1001.76 1002.05 1002.33 1002.53 1002.78 1002.91 1003.18 1003.31 1003.48 1003.52 1003.47 1003.41 1003.62 1004.23 1005.00
1026.57 1024.79 1023.26 1022.06 1020.60 1019.00 1017.36 1015.65 1014.07 1012.43 1010.81 1009.21 1007.64 1005.88 1004.54 1003.42 1002.61 1001.61 1000.58 999.59 998.65 998.76 999.24 999.52 999.77 1000.07 1000.21 1000.35 1000.61 1001.11 1001.60 1001.95 1002.19 1002.31 1002.56 1002.76 1002.70 1002.64 1002.55 1002.62 1003.33 1003.74 1004.82
1026.72 1024.90 1023.58 1022.27 1020.81 1019.09 1017.56 1015.84 1014.25 1012.50 1010.76 1009.07 1007.33 1006.14 1004.99 1003.91 1003.00 1001.94 1000.20 998.26 996.45 997.18 998.33 998.78 999.17 999.33 999.48 999.81 1000.01 1000.34 1000.69 1001.19 1001.56 1001.78 1001.99 1002.13 1002.15 1002.21 1002.21 1002.11 1002.92 1003.92 1004.92
1026.86 1025.23 1023.87 1022.28 1020.86 1019.31 1017.64 1016.12 1014.44 1012.70 1010.87 1009.11 1008.07 1006.66 1005.76 1004.77 1003.68 1002.25 1000.90 999.66 998.59 998.32 998.59 998.65 998.61 998.61 998.71 999.11 999.37 999.60 999.99 1000.48 1000.86 1001.18 1001.27 1001.43 1001.55 1001.77 1002.24 1002.86 1004.34 1006.06 1006.82
1027.47 1025.96 1024.49 1022.77 1021.12 1019.66 1018.02 1016.34 1014.58 1012.93 1011.24 1010.02 1008.80 1007.78 1006.91 1005.82 1004.72 1003.58 1002.54 1001.62 1000.76 1000.29 999.89 999.39 998.56 997.69 997.73 998.50 999.10 999.49 999.76 1000.25 1000.30 1000.36 1000.54 1000.84 1001.34 1002.14 1002.97 1003.71 1005.72 1007.40 1008.46
1027.73 1025.98 1024.46 1022.98 1021.59 1019.98 1018.52 1016.84 1015.17 1013.58 1011.93 1010.78 1009.90 1008.96 1008.07 1007.09 1006.13 1005.27 1004.35 1003.56 1002.72 1002.30 1001.92 1001.44 1000.88 1000.24 999.55 999.68 1000.09 1000.46 1000.93 1001.10 1001.25 1001.04 1001.43 1001.86 1002.65 1003.39 1003.58 1005.44 1006.64 1008.10 1009.66
1027.79 1026.23 1024.81 1023.36 1022.14 1020.61 1019.13 1017.49 1016.06 1014.43 1013.13 1011.88 1011.03 1010.07 1009.19 1008.32 1007.67 1007.00 1006.23 1005.58 1004.95 1004.46 1003.94 1003.34 1003.23 1002.80 1002.45 1002.29 1002.31 1002.67 1002.79 1003.10 1003.33 1003.93 1004.49 1005.07 1005.06 1005.40 1006.64 1007.79 1008.73 1009.43 1010.76
1027.27 1026.23 1025.12 1023.74 1022.57 1021.24 1019.87 1018.35 1016.69 1015.46 1014.22 1013.22 1012.24 1011.40 1010.55 1009.72 1009.03 1008.39 1007.90 1007.38 1006.88 1006.57 1006.34 1005.91 1005.82 1005.48 1004.95 1004.65 1004.55 1004.58 1004.70 1005.07 1005.15 1005.89 1006.62 1007.00 1007.17 1008.02 1008.83 1009.78 1010.70 1011.49 1012.23
1027.97 1026.85 1025.85 1024.48 1023.20 1021.94 1020.69 1019.33 1017.87 1016.48 1015.35 1014.49 1013.65 1012.84 1012.00 1011.13 1010.45 1009.78 1009.32 1008.93 1008.72 1008.49 1008.59 1008.55 1008.51 1008.56 1008.42 1007.87 1007.31 1007.11 1007.09 1007.22 1007.32 1008.01 1008.53 1008.89 1009.54 1010.29 1011.13 1011.91 1012.53 1013.07 1013.60
1028.51 1027.36 1026.26 1025.08 1023.88 1022.61 1021.30 1020.22 1018.85 1017.42 1016.47 1015.73 1015.08 1014.52 1013.73 1012.99 1012.13 1011.54 1011.05 1010.69 1010.43 1010.21 1010.14 1010.12 1010.15 1010.28 1010.33 1010.46 1010.41 1010.18 1010.06 1010.07 1010.08 1010.54 1011.02 1011.41 1011.85 1012.38 1013.17 1013.82 1014.37 1014.86 1015.36
1028.93 1027.97 1026.94 1025.88 1024.71 1023.45 1022.04 1020.79 1019.68 1018.37 1017.59 1017.04 1016.46 1015.89 1015.40 1014.93 1014.42 1013.68 1013.24 1012.84 1012.59 1012.21 1011.91 1011.80 1011.54 1011.39 1011.45 1012.15 1011.96 1011.66 1011.71 1011.97 1012.32 1012.23 1012.75 1013.22 1013.80 1014.30 1015.09 1015.69 1016.25 1016.66 1016.98
1029.33 1028.25 1027.36 1026.46 1025.40 1024.17 1022.78 1021.59 1020.51 1019.37 1018.65 1018.16 1017.79 1017.38 1016.93 1016.50 1016.10 1015.78 1015.33 1014.81 1014.43 1014.04 1013.65 1013.45 1013.11 1013.23 1013.47 1013.66 1013.43 1013.36 1013.50 1013.78 1014.14 1013.83 1014.54 1015.36 1015.96 1016.37 1016.95 1017.35 1017.76 1018.12 1018.36
Wind_Speed
21 20 20 21 20 19 19 19 18 19 14 11 11 11 11 11 10 8 11 11 9 10 9 8 9 8 8 9 9 8 10 9 6 7 9 9 14 16 14 13 13 15 14
22 22 22 20 19 19 19 19 19 18 15 10 10 9 9 10 10 10 12 13 12 11 9 10 9 9 8 10 10 9 7 8 6 6 8 9 9 10 10 12 12 16 10
23 24 24 23 20 21 20 19 19 19 17 17 11 10 9 8 8 10 10 12 13 13 10 11 10 9 8 9 11 10 11 10 9 9 5 6 6 11 8 12 10 13 10
24 23 23 21 22 20 18 20 19 20 17 18 13 17 12 13 11 11 10 11 12 14 13 12 12 11 9 12 11 10 10 9 10 7 7 10 9 6 9 8 9 10 8
21 23 22 21 22 20 19 18 19 18 18 17 16 14 16 12 11 11 15 15 12 13 15 13 14 13 9 12 13 12 11 9 10 9 7 8 7 11 10 12 11 7 8
25 24 24 23 21 20 20 20 22 21 20 18 18 17 18 18 14 15 13 11 10 10 13 14 13 13 12 12 12 13 13 11 11 10 9 9 8 8 8 9 12 8 7
22 23 25 25 26 25 24 21 22 24 22 22 21 20 19 19 19 18 13 15 12 10 12 14 13 11 13 13 12 12 12 12 11 12 9 10 10 10 10 10 12 11 9
22 23 24 24 25 27 27 25 24 24 23 22 22 19 20 14 14 16 15 13 13 13 15 14 15 16 16 14 13 10 11 12 11 14 11 10 10 10 10 11 10 11 10
27 28 27 25 25 25 26 25 26 25 24 23 20 20 19 19 18 19 17 13 15 13 16 17 16 16 16 15 13 11 13 13 13 13 12 11 10 10 10 11 10 8 8
28 28 27 27 26 25 24 25 24 25 24 23 20 18 20 19 18 18 19 18 16 16 16 16 16 16 16 16 15 12 14 13 12 11 13 12 10 10 10 10 9 9 9
28 27 27 27 26 25 24 24 24 24 23 21 22 20 19 20 19 16 17 16 17 15 16 16 16 15 15 16 15 15 14 14 14 13 12 14 12 10 10 9 7 6 7
29 28 27 27 26 26 25 24 24 24 22 21 20 19 19 18 18 17 17 16 16 15 14 15 12 15 14 14 15 15 14 13 14 13 13 13 10 14 13 10 11 9 9
30 29 28 27 26 27 27 26 24 23 23 21 20 19 18 17 17 16 16 16 16 15 15 14 14 13 14 13 15 15 15 14 14 14 14 13 13 14 11 12 11 10 9
29 30 28 28 27 28 26 26 25 24 23 22 21 20 19 17 16 16 16 15 15 14 14 13 13 13 13 12 13 12 12 13 13 14 14 13 12 13 14 13 14 7 8
31 30 30 28 29 28 27 26 25 24 23 22 21 20 19 17 15 15 15 15 14 13 13 12 12 11 11 10 12 12 14 12 14 13 12 11 12 19 17 7 4 13 10
31 31 31 31 30 29 27 26 26 25 23 22 21 19 17 13 13 13 14 14 14 13 11 11 11 11 8 15 19 14 10 11 11 10 10 12 17 18 19 16 22 19 16
31 31 31 28 26 27 26 26 25 24 23 22 19 17 16 16 16 16 18 18 13 7 8 8 8 9 10 17 17 17 8 10 9 10 9 9 9 14 11 13 24 21 19
30 29 27 27 28 26 26 26 24 23 22 19 17 16 17 16 17 18 19 20 19 14 4 3 7 8 8 16 14 13 7 8 10 10 9 8 7 5 11 20 21 17 16
26 25 25 26 26 26 26 25 24 22 20 20 18 18 18 18 17 19 18 18 17 18 19 18 18 12 6 13 11 6 9 8 3 7 11 9 12 31 34 25 23 20 18
23 26 26 26 25 25 25 24 23 23 22 19 18 16 17 18 18 18 18 17 17 18 16 19 21 31 21 32 30 21 12 17 15 18 19 31 24 33 37 22 22 21 16
25 25 24 24 25 23 24 24 22 22 21 19 18 17 17 17 17 17 17 17 18 18 17 19 20 23 24 27 35 32 16 13 15 15 15 17 36 37 34 27 18 22 21
28 25 22 24 24 24 22 23 22 21 18 19 18 19 17 14 14 17 16 17 17 18 19 20 18 16 20 31 36 37 34 28 17 17 16 23 40 38 37 26 34 32 22
23 20 22 23 23 23 22 21 22 20 18 18 18 18 19 18 17 18 17 14 15 14 14 13 13 13 13 15 38 39 38 36 22 17 32 39 37 36 30 32 29 22 12
21 21 23 23 23 22 22 19 20 18 16 17 17 15 17 19 19 15 15 14 13 13 13 12 13 12 13 13 12 13 15 26 20 24 22 27 28 29 23 18 17 12 11
20 19 20 20 22 22 21 20 19 16 15 14 14 14 13 16 16 17 16 15 18 16 12 12 12 13 15 15 21 17 13 13 19 17 14 14 14 14 14 13 13 12 12
19 19 20 20 21 20 20 19 19 15 14 12 11 11 10 10 11 11 13 31 30 31 31 30 20 16 27 28 29 30 29 28 24 16 15 14 13 13 12 12 12 11 13
Wind_Direction
342 336 333 332 330 327 325 325 322 321 323 322 327 326 314 302 297 290 283 276 273 275 272 271 274 273 270 272 274 283 284 281 271 295 298 290 282 268 261 256 250 253 253
339 339 333 331 328 320 320 318 314 313 314 313 308 299 296 291 288 291 288 280 265 254 246 246 248 252 260 264 264 260 266 262 257 279 294 299 308 265 278 256 245 241 241
340 339 337 335 329 325 321 316 309 307 305 304 297 301 293 278 276 276 275 276 285 281 265 267 266 273 272 272 272 270 260 270 261 241 256 290 293 328 290 321 278 258 238
338 333 328 324 323 316 312 310 306 303 303 303 294 298 292 290 286 283 275 273 273 277 274 263 263 262 268 267 265 263 253 253 259 241 238 247 271 287 305 297 303 296 290
330 327 326 322 320 320 316 312 307 302 298 292 295 291 292 287 289 286 288 283 281 276 275 269 267 262 257 257 254 255 241 237 245 246 245 243 257 263 263 276 283 298 291
333 329 325 322 320 318 315 313 310 306 304 297 295 288 282 285 286 283 283 280 277 274 268 267 265 266 261 255 248 251 244 239 237 243 239 242 249 259 265 265 270 290 298
328 324 322 322 320 318 315 310 308 303 301 300 297 291 284 279 276 277 277 278 277 270 262 259 260 261 258 255 251 251 246 243 236 238 233 236 243 250 259 262 269 278 280
330 324 320 317 315 314 312 313 309 305 305 300 295 291 285 279 276 272 271 267 268 268 266 258 252 259 259 253 248 250 248 246 240 239 234 235 240 241 249 256 267 276 281
328 324 323 320 316 315 316 315 313 311 308 305 300 297 292 283 282 275 271 267 264 263 264 260 256 256 254 252 248 247 248 245 241 240 234 232 239 241 249 253 246 250 271
326 324 323 322 319 319 319 316 314 309 309 305 304 297 294 289 288 284 276 272 266 267 265 259 257 257 253 252 252 247 243 242 240 239 235 231 237 245 249 247 239 238 249
324 324 321 321 321 321 322 318 314 313 308 306 302 298 294 291 286 284 282 279 275 274 269 262 257 257 247 252 251 246 245 238 241 237 238 238 240 254 256 256 258 245 259
323 321 323 324 325 325 321 320 318 314 311 306 300 294 290 287 284 280 278 273 272 264 259 258 252 247 249 246 243 246 240 233 241 239 239 241 244 255 251 252 249 245 247
323 324 327 328 328 327 325 323 320 316 313 309 304 300 294 290 283 279 274 271 266 260 254 248 244 237 235 236 244 238 240 244 243 239 241 245 250 247 244 246 238 234 231
326 327 327 328 329 326 326 322 320 319 315 311 308 304 300 296 292 287 280 275 267 261 255 250 246 239 231 226 227 230 235 235 243 247 247 246 234 240 244 237 233 207 146
329 328 328 331 328 327 325 322 322 321 320 316 314 311 306 300 294 291 290 285 275 264 255 252 250 246 230 222 223 222 224 233 241 245 241 233 244 244 241 233 193 139 138
327 327 329 328 328 327 326 325 326 326 325 323 320 311 317 319 317 308 306 290 265 247 241 243 239 237 244 232 233 218 219 221 227 233 229 236 240 239 234 238 164 151 144
328 328 331 330 327 326 327 328 328 327 328 328 345 355 355 358 359 347 331 333 355 202 214 224 231 233 229 238 237 236 216 201 213 222 228 223 224 237 239 246 167 157 138
328 329 329 330 331 329 330 330 332 333 334 343 357 352 4 4 2 359 7 19 33 46 77 219 229 229 228 234 235 231 218 190 202 217 222 221 224 205 105 92 81 74 76
327 327 328 329 331 332 332 334 337 341 352 1 359 9 9 3 7 12 19 33 41 39 41 39 40 56 190 213 207 115 87 81 108 213 222 231 123 116 110 99 100 101 103
333 331 332 332 335 335 335 338 343 349 360 1 4 8 14 15 18 16 23 29 43 49 49 51 46 49 58 81 85 82 80 76 70 64 75 96 105 107 105 106 109 105 99
333 334 337 337 336 337 340 343 348 355 356 3 12 16 21 21 21 27 30 32 39 39 38 51 55 56 63 69 75 73 68 70 72 69 73 79 87 86 88 90 93 99 103
337 341 341 338 338 342 345 346 350 346 0 9 15 22 24 27 26 30 34 37 41 40 41 44 43 35 59 71 79 79 78 76 78 80 84 86 88 91 92 93 99 99 98
339 340 342 339 340 343 347 345 345 347 4 12 17 22 28 32 32 35 36 36 38 44 45 46 45 39 39 42 67 74 73 72 72 76 84 84 87 88 87 92 93 91 90
344 341 342 343 341 343 343 344 347 349 10 15 19 25 33 35 38 37 37 38 36 41 45 48 54 57 56 52 52 56 60 65 71 75 77 80 82 81 83 79 73 72 75
344 343 343 342 341 340 341 345 351 356 15 16 19 25 30 42 43 43 45 47 50 50 50 52 57 59 61 63 73 75 74 75 81 84 78 75 73 74 74 73 73 77 81
343 344 343 344 341 340 339 346 349 358 12 21 16 26 27 34 45 49 49 54 57 59 63 63 64 68 75 75 75 77 78 78 77 75 73 73 72 74 78 79 80 78 84